Location: Bondula
(6.3703°N, 10.6756°W)
Time: 21:26:26
(UTC+00:00)

Cosmos 1726 - Pass Details

Date: 22 October 2019
Orbit: 483 x 500 km, 82.5° (Epoch: 18 November)

Event Time Altitude Azimuth Distance (km) Brightness Sun altitude
Rises 06:04:45 0° 350° (N) 2,549 5.5 -6.7°
Reaches altitude 10° 06:06:52 10° 346° (NNW) 1,673 4.6 -6.2°
Maximum altitude 06:10:28 59° 267° (W) 570 2.1 -5.3°
Drops below altitude 10° 06:14:07 10° 186° (S) 1,687 4.9 -4.4°
Sets 06:16:15 0° 182° (S) 2,573 5.9 -3.9°
